| time (UTC) | temp C | wind direction | speed KPH | gust KPH | rain 1hr cm | rain 24hr cm | rain mn cm | humidity % | barometer mb |
| 20260507185444 | 13 | 274 | 20.9 | 24.1 | 0.00 | 0.08 | 0.05 | 49 | 1010.5 |
| 20260507184944 | 12 | 320 | 14.5 | 24.1 | 0.00 | 0.08 | 0.05 | 44 | 1010.5 |
| 20260507184444 | 12 | 291 | 20.9 | 20.9 | 0.00 | 0.08 | 0.05 | 47 | 1010.6 |
| 20260507183944 | 13 | 286 | 14.5 | 20.9 | 0.00 | 0.08 | 0.05 | 47 | 1010.7 |
| 20260507183445 | 12 | 350 | 11.3 | 14.5 | 0.00 | 0.08 | 0.05 | 47 | 1010.7 |
| 20260507182944 | 12 | 275 | 14.5 | 16.1 | 0.00 | 0.08 | 0.05 | 50 | 1010.6 |
| 20260507182444 | 12 | 268 | 11.3 | 20.9 | 0.00 | 0.08 | 0.05 | 49 | 1010.7 |
| 20260507181945 | 12 | 309 | 11.3 | 12.9 | 0.00 | 0.08 | 0.05 | 48 | 1010.7 |
| 20260507181444 | 12 | 260 | 9.7 | 16.1 | 0.00 | 0.08 | 0.05 | 48 | 1010.8 |
| 20260507180944 | 12 | 268 | 14.5 | 19.3 | 0.00 | 0.08 | 0.05 | 49 | 1010.7 |
| 20260507180444 | 12 | 279 | 12.9 | 19.3 | 0.00 | 0.08 | 0.05 | 49 | 1010.8 |
| 20260507175944 | 12 | 267 | 16.1 | 17.7 | 0.00 | 0.08 | 0.05 | 48 | 1010.9 |
| 20260507175447 | 12 | 275 | 9.7 | 14.5 | 0.00 | 0.08 | 0.05 | 48 | 1010.8 |
| 20260507174947 | 13 | 264 | 4.8 | 19.3 | 0.00 | 0.08 | 0.05 | 48 | 1010.9 |
| 20260507174445 | 13 | 255 | 12.9 | 30.6 | 0.00 | 0.08 | 0.05 | 48 | 1011.0 |
| 20260507173946 | 12 | 254 | 25.7 | 30.6 | 0.00 | 0.08 | 0.05 | 47 | 1011.0 |
| 20260507173444 | 12 | 285 | 8.0 | 17.7 | 0.00 | 0.08 | 0.05 | 45 | 1011.0 |
| 20260507172945 | 12 | 247 | 20.9 | 24.1 | 0.00 | 0.08 | 0.05 | 53 | 1011.1 |
| 20260507172444 | 11 | 281 | 16.1 | 25.7 | 0.00 | 0.08 | 0.05 | 51 | 1011.2 |
| 20260507171945 | 11 | 310 | 12.9 | 20.9 | 0.00 | 0.10 | 0.05 | 48 | 1011.3 |
| 20260507171444 | 12 | 292 | 14.5 | 24.1 | 0.00 | 0.10 | 0.05 | 48 | 1011.3 |
| 20260507170946 | 12 | 292 | 6.4 | 22.5 | 0.00 | 0.10 | 0.05 | 50 | 1011.4 |
| 20260507170444 | 11 | 275 | 12.9 | 17.7 | 0.00 | 0.10 | 0.05 | 52 | 1011.4 |
| 20260507165944 | 11 | 288 | 9.7 | 20.9 | 0.00 | 0.10 | 0.05 | 48 | 1011.7 |
| 20260507165444 | 11 | 254 | 14.5 | 25.7 | 0.00 | 0.10 | 0.05 | 48 | 1011.7 |
| 20260507164945 | 12 | 261 | 17.7 | 29.0 | 0.00 | 0.10 | 0.05 | 51 | 1011.7 |
| 20260507164444 | 11 | 271 | 29.0 | 30.6 | 0.03 | 0.10 | 0.05 | 48 | 1011.7 |
| 20260507164014 | 12 | 278 | 16.1 | 27.4 | 0.03 | 0.10 | 0.05 | 49 | 1011.8 |
| 20260507163946 | 12 | 255 | 9.7 | 25.7 | 0.03 | 0.10 | 0.05 | 48 | 1011.8 |
| 20260507163444 | 12 | 278 | 16.1 | 27.4 | 0.03 | 0.10 | 0.05 | 49 | 1011.8 |
| 20260507162946 | 11 | 251 | 17.7 | 27.4 | 0.03 | 0.10 | 0.05 | 49 | 1011.8 |
| 20260507162446 | 11 | 267 | 24.1 | 27.4 | 0.03 | 0.10 | 0.05 | 46 | 1011.9 |
| 20260507161944 | 11 | 261 | 14.5 | 19.3 | 0.03 | 0.10 | 0.05 | 52 | 1011.8 |
| 20260507160945 | 11 | 254 | 6.4 | 20.9 | 0.03 | 0.10 | 0.05 | 53 | 1012.0 |
| 20260507160444 | 11 | 285 | 11.3 | 20.9 | 0.03 | 0.10 | 0.05 | 54 | 1012.0 |
| 20260507155944 | 11 | 303 | 9.7 | 19.3 | 0.03 | 0.10 | 0.05 | 52 | 1012.1 |
| 20260507155444 | 11 | 329 | 9.7 | 19.3 | 0.03 | 0.10 | 0.05 | 54 | 1012.1 |
| 20260507154947 | 11 | 278 | 17.7 | 25.7 | 0.03 | 0.10 | 0.05 | 53 | 1012.1 |
| 20260507154444 | 11 | 309 | 12.9 | 27.4 | 0.00 | 0.08 | 0.03 | 51 | 1012.1 |
| 20260507153944 | 11 | 322 | 17.7 | 20.9 | 0.00 | 0.08 | 0.03 | 50 | 1012.1 |
| 20260507153444 | 11 | 274 | 14.5 | 24.1 | 0.00 | 0.08 | 0.03 | 54 | 1012.2 |
| 20260507152944 | 11 | 244 | 24.1 | 30.6 | 0.00 | 0.08 | 0.03 | 55 | 1012.2 |
| 20260507152444 | 11 | 255 | 14.5 | 25.7 | 0.00 | 0.08 | 0.03 | 52 | 1012.4 |
| 20260507151944 | 11 | 286 | 4.8 | 24.1 | 0.00 | 0.08 | 0.03 | 54 | 1012.4 |
| 20260507151444 | 10 | 265 | 24.1 | 29.0 | 0.00 | 0.08 | 0.03 | 55 | 1012.5 |
| 20260507150946 | 10 | 264 | 4.8 | 19.3 | 0.00 | 0.08 | 0.03 | 54 | 1012.6 |
| 20260507150445 | 10 | 279 | 19.3 | 25.7 | 0.00 | 0.08 | 0.03 | 54 | 1012.7 |
| 20260507145944 | 10 | 295 | 9.7 | 24.1 | 0.00 | 0.08 | 0.03 | 57 | 1012.7 |
| 20260507145444 | 10 | 247 | 20.9 | 22.5 | 0.00 | 0.08 | 0.03 | 54 | 1012.8 |
| 20260507144945 | 10 | 247 | 11.3 | 20.9 | 0.00 | 0.08 | 0.03 | 57 | 1012.8 |
| 20260507144446 | 10 | 243 | 17.7 | 17.7 | 0.00 | 0.08 | 0.03 | 61 | 1012.9 |
| 20260507143944 | 10 | 261 | 14.5 | 27.4 | 0.00 | 0.08 | 0.03 | 58 | 1013.0 |
| 20260507143444 | 10 | 251 | 14.5 | 25.7 | 0.00 | 0.08 | 0.03 | 60 | 1013.0 |
| 20260507142945 | 10 | 261 | 11.3 | 22.5 | 0.00 | 0.08 | 0.03 | 58 | 1013.1 |
| 20260507142444 | 10 | 302 | 8.0 | 19.3 | 0.00 | 0.08 | 0.03 | 58 | 1013.0 |
| 20260507141944 | 10 | 317 | 12.9 | 25.7 | 0.00 | 0.08 | 0.03 | 55 | 1013.1 |
| 20260507141444 | 10 | 277 | 12.9 | 17.7 | 0.00 | 0.08 | 0.03 | 62 | 1013.3 |
| 20260507140944 | 10 | 220 | 14.5 | 19.3 | 0.00 | 0.08 | 0.03 | 61 | 1013.3 |
| 20260507140444 | 9 | 257 | 12.9 | 20.9 | 0.00 | 0.08 | 0.03 | 61 | 1013.4 |
| 20260507135944 | 9 | 220 | 14.5 | 17.7 | 0.00 | 0.08 | 0.03 | 61 | 1013.3 |
| 20260507135444 | 9 | 226 | 16.1 | 17.7 | 0.00 | 0.08 | 0.03 | 62 | 1013.4 |
| 20260507134944 | 9 | 272 | 8.0 | 17.7 | 0.00 | 0.08 | 0.03 | 61 | 1013.4 |
| 20260507134445 | 9 | 248 | 14.5 | 19.3 | 0.00 | 0.08 | 0.03 | 63 | 1013.5 |
| 20260507133944 | 8 | 255 | 4.8 | 12.9 | 0.00 | 0.08 | 0.03 | 63 | 1013.5 |
| 20260507133444 | 8 | 260 | 12.9 | 17.7 | 0.00 | 0.08 | 0.03 | 65 | 1013.4 |
| 20260507132945 | 8 | 271 | 9.7 | 11.3 | 0.00 | 0.08 | 0.03 | 64 | 1013.4 |
| 20260507132444 | 8 | 241 | 9.7 | 14.5 | 0.00 | 0.08 | 0.03 | 67 | 1013.4 |
| 20260507131945 | 8 | 262 | 1.6 | 14.5 | 0.00 | 0.10 | 0.03 | 68 | 1013.4 |
| 20260507131444 | 8 | 278 | 6.4 | 11.3 | 0.00 | 0.10 | 0.03 | 68 | 1013.4 |
| 20260507130944 | 8 | 244 | 6.4 | 11.3 | 0.00 | 0.10 | 0.03 | 67 | 1013.3 |
| 20260507130445 | 8 | 230 | 8.0 | 12.9 | 0.00 | 0.10 | 0.03 | 71 | 1013.3 |
| 20260507125944 | 7 | 236 | 4.8 | 12.9 | 0.00 | 0.10 | 0.03 | 70 | 1013.4 |
| 20260507125444 | 7 | 229 | 6.4 | 11.3 | 0.00 | 0.10 | 0.03 | 71 | 1013.4 |
| 20260507124944 | 7 | 217 | 6.4 | 11.3 | 0.00 | 0.10 | 0.03 | 72 | 1013.4 |
| 20260507124444 | 7 | 196 | 9.7 | 9.7 | 0.00 | 0.10 | 0.03 | 74 | 1013.5 |
| 20260507123945 | 7 | 225 | 6.4 | 9.7 | 0.00 | 0.10 | 0.03 | 77 | 1013.4 |
| 20260507123444 | 6 | 201 | 8.0 | 8.0 | 0.00 | 0.10 | 0.03 | 79 | 1013.5 |
| 20260507122944 | 6 | 182 | 6.4 | 6.4 | 0.00 | 0.10 | 0.03 | 81 | 1013.5 |
| 20260507122444 | 6 | 254 | 4.8 | 6.4 | 0.00 | 0.10 | 0.03 | 83 | 1013.4 |
| 20260507121944 | 6 | 213 | 3.2 | 4.8 | 0.00 | 0.13 | 0.03 | 85 | 1013.4 |
| 20260507121446 | 5 | 187 | 3.2 | 4.8 | 0.00 | 0.13 | 0.03 | 88 | 1013.3 |
| 20260507120945 | 5 | 213 | 1.6 | 4.8 | 0.00 | 0.13 | 0.03 | 90 | 1013.4 |
| 20260507120444 | 5 | 185 | 3.2 | 4.8 | 0.00 | 0.13 | 0.03 | 91 | 1013.4 |
| 20260507115945 | 5 | 187 | 3.2 | 3.2 | 0.00 | 0.13 | 0.03 | 92 | 1013.3 |
| 20260507115446 | 4 | 191 | 1.6 | 3.2 | 0.00 | 0.13 | 0.03 | 92 | 1013.4 |
| 20260507114945 | 3 | 199 | 3.2 | 3.2 | 0.00 | 0.13 | 0.03 | 93 | 1013.4 |
| 20260507114446 | 3 | 174 | 1.6 | 1.6 | 0.00 | 0.13 | 0.03 | 94 | 1013.4 |
| 20260507113944 | 3 | 185 | 0.0 | 1.6 | 0.00 | 0.13 | 0.03 | 94 | 1013.3 |
| 20260507113445 | 3 | 188 | 1.6 | 3.2 | 0.00 | 0.13 | 0.03 | 94 | 1013.1 |
| 20260507112945 | 2 | 229 | 0.0 | 0.0 | 0.00 | 0.13 | 0.03 | 94 | 1013.1 |
| 20260507112445 | 2 | 229 | 0.0 | 0.0 | 0.00 | 0.13 | 0.03 | 94 | 1013.0 |
| 20260507111944 | 2 | 234 | 0.0 | 3.2 | 0.00 | 0.13 | 0.03 | 94 | 1013.0 |
| 20260507111445 | 2 | 191 | 1.6 | 4.8 | 0.00 | 0.13 | 0.03 | 94 | 1012.9 |
| 20260507110944 | 2 | 185 | 4.8 | 4.8 | 0.00 | 0.13 | 0.03 | 94 | 1012.8 |
| 20260507110445 | 1 | 196 | 3.2 | 3.2 | 0.00 | 0.13 | 0.03 | 94 | 1012.8 |
| 20260507110015 | 1 | 265 | 0.0 | 3.2 | 0.00 | 0.13 | 0.03 | 95 | 1012.8 |
| 20260507105944 | 1 | 265 | 0.0 | 3.2 | 0.00 | 0.13 | 0.03 | 95 | 1012.8 |
| 20260507105445 | 1 | 274 | 3.2 | 3.2 | 0.00 | 0.13 | 0.03 | 95 | 1012.8 |
| 20260507104945 | 1 | 279 | 3.2 | 3.2 | 0.00 | 0.13 | 0.03 | 95 | 1012.7 |
| 20260507104445 | 1 | 302 | 1.6 | 3.2 | 0.00 | 0.13 | 0.03 | 95 | 1012.8 |
| 20260507103947 | 1 | 296 | 1.6 | 3.2 | 0.00 | 0.13 | 0.03 | 95 | 1012.8 |
| 20260507103444 | 1 | 316 | 3.2 | 4.8 | 0.00 | 0.13 | 0.03 | 95 | 1012.7 |
| 20260507102945 | 1 | 298 | 4.8 | 4.8 | 0.00 | 0.13 | 0.03 | 95 | 1012.7 |
| 20260507102445 | 1 | 302 | 3.2 | 3.2 | 0.00 | 0.13 | 0.03 | 95 | 1012.7 |
| 20260507101944 | 1 | 331 | 4.8 | 4.8 | 0.00 | 0.15 | 0.03 | 95 | 1012.7 |
| 20260507101444 | 1 | 295 | 4.8 | 6.4 | 0.00 | 0.15 | 0.03 | 93 | 1012.7 |
| 20260507100945 | 1 | 312 | 4.8 | 4.8 | 0.00 | 0.15 | 0.03 | 93 | 1012.7 |
| 20260507100445 | 1 | 300 | 3.2 | 3.2 | 0.00 | 0.15 | 0.03 | 93 | 1012.7 |
| 20260507095945 | 1 | 174 | 0.0 | 0.0 | 0.00 | 0.15 | 0.03 | 92 | 1012.8 |
| 20260507095445 | 1 | 174 | 0.0 | 0.0 | 0.00 | 0.15 | 0.03 | 90 | 1012.8 |
| 20260507094945 | 1 | 174 | 0.0 | 0.0 | 0.00 | 0.15 | 0.03 | 89 | 1012.8 |
| 20260507094446 | 1 | 174 | 0.0 | 1.6 | 0.00 | 0.15 | 0.03 | 89 | 1012.9 |
| 20260507093945 | 2 | 272 | 1.6 | 1.6 | 0.00 | 0.15 | 0.03 | 88 | 1012.9 |
| 20260507093445 | 2 | 286 | 0.0 | 0.0 | 0.00 | 0.15 | 0.03 | 88 | 1012.8 |
| 20260507092945 | 2 | 324 | 0.0 | 1.6 | 0.00 | 0.15 | 0.03 | 88 | 1012.9 |
| 20260507092445 | 2 | 285 | 0.0 | 0.0 | 0.00 | 0.15 | 0.03 | 88 | 1012.9 |
| 20260507091944 | 2 | 268 | 0.0 | 1.6 | 0.00 | 0.18 | 0.03 | 87 | 1012.9 |
| 20260507091445 | 2 | 270 | 1.6 | 1.6 | 0.00 | 0.18 | 0.03 | 86 | 1012.9 |
| 20260507090951 | 2 | 240 | 0.0 | 1.6 | 0.00 | 0.18 | 0.03 | 86 | 1013.0 |
| 20260507090447 | 2 | 260 | 1.6 | 1.6 | 0.00 | 0.18 | 0.03 | 86 | 1013.0 |
| 20260507085945 | 2 | 267 | 1.6 | 3.2 | 0.00 | 0.18 | 0.03 | 86 | 1013.0 |
| 20260507085445 | 2 | 257 | 1.6 | 3.2 | 0.00 | 0.18 | 0.03 | 85 | 1012.9 |
| 20260507084945 | 2 | 203 | 1.6 | 1.6 | 0.00 | 0.18 | 0.03 | 85 | 1012.9 |
| 20260507084445 | 3 | 286 | 1.6 | 3.2 | 0.00 | 0.18 | 0.03 | 86 | 1012.9 |
| 20260507083945 | 3 | 336 | 3.2 | 3.2 | 0.00 | 0.18 | 0.03 | 85 | 1012.9 |
| 20260507083448 | 3 | 289 | 0.0 | 0.0 | 0.00 | 0.18 | 0.03 | 83 | 1012.9 |
| 20260507082945 | 3 | 289 | 0.0 | 0.0 | 0.00 | 0.18 | 0.03 | 82 | 1012.9 |
| 20260507082445 | 3 | 289 | 0.0 | 0.0 | 0.00 | 0.18 | 0.03 | 82 | 1012.9 |
| 20260507081945 | 3 | 289 | 0.0 | 0.0 | 0.00 | 0.18 | 0.03 | 82 | 1012.9 |
| 20260507081445 | 4 | 289 | 0.0 | 0.0 | 0.00 | 0.18 | 0.03 | 81 | 1013.0 |
| 20260507080945 | 4 | 289 | 0.0 | 0.0 | 0.00 | 0.18 | 0.03 | 81 | 1013.0 |
| 20260507080445 | 4 | 289 | 0.0 | 0.0 | 0.00 | 0.18 | 0.03 | 79 | 1013.0 |
| 20260507075945 | 4 | 289 | 0.0 | 0.0 | 0.00 | 0.18 | 0.03 | 78 | 1013.0 |
| 20260507075445 | 5 | 289 | 0.0 | 0.0 | 0.00 | 0.18 | 0.03 | 78 | 1013.0 |
| 20260507074945 | 5 | 289 | 0.0 | 0.0 | 0.00 | 0.18 | 0.03 | 77 | 1013.0 |
| 20260507074445 | 5 | 289 | 0.0 | 0.0 | 0.00 | 0.18 | 0.03 | 76 | 1013.0 |
| 20260507073945 | 5 | 289 | 0.0 | 0.0 | 0.00 | 0.18 | 0.03 | 76 | 1013.0 |
| 20260507073447 | 5 | 289 | 0.0 | 0.0 | 0.00 | 0.18 | 0.03 | 77 | 1013.0 |
| 20260507072946 | 5 | 289 | 0.0 | 1.6 | 0.00 | 0.18 | 0.03 | 78 | 1013.0 |
| 20260507072447 | 5 | 262 | 1.6 | 3.2 | 0.00 | 0.18 | 0.03 | 78 | 1013.1 |
| 20260507071945 | 5 | 226 | 1.6 | 3.2 | 0.00 | 0.23 | 0.03 | 77 | 1013.0 |
| 20260507071445 | 5 | 240 | 3.2 | 3.2 | 0.00 | 0.23 | 0.03 | 75 | 1013.1 |
| 20260507070945 | 6 | 243 | 3.2 | 4.8 | 0.00 | 0.23 | 0.03 | 72 | 1013.1 |
| 20260507070445 | 6 | 262 | 3.2 | 4.8 | 0.00 | 0.23 | 0.03 | 71 | 1013.1 |
| 20260507065945 | 6 | 289 | 3.2 | 4.8 | 0.00 | 0.23 | 0.03 | 71 | 1012.9 |
| 20260507065445 | 6 | 302 | 1.6 | 3.2 | 0.00 | 0.23 | 0.03 | 71 | 1013.0 |
| 20260507064945 | 6 | 303 | 3.2 | 3.2 | 0.00 | 0.23 | 0.03 | 71 | 1012.9 |
| 20260507064446 | 6 | 248 | 0.0 | 0.0 | 0.00 | 0.23 | 0.03 | 71 | 1013.0 |
| 20260507063945 | 6 | 248 | 0.0 | 0.0 | 0.00 | 0.23 | 0.03 | 70 | 1012.9 |
| 20260507063445 | 6 | 248 | 0.0 | 0.0 | 0.00 | 0.23 | 0.03 | 71 | 1013.0 |
| 20260507062945 | 6 | 248 | 0.0 | 3.2 | 0.00 | 0.23 | 0.03 | 70 | 1013.0 |
| 20260507062445 | 6 | 289 | 3.2 | 3.2 | 0.00 | 0.23 | 0.03 | 69 | 1013.1 |
| 20260507061945 | 6 | 292 | 0.0 | 6.4 | 0.00 | 0.28 | 0.03 | 69 | 1013.1 |
| 20260507061445 | 6 | 286 | 0.0 | 4.8 | 0.00 | 0.28 | 0.03 | 68 | 1013.1 |
| 20260507060945 | 6 | 309 | 0.0 | 3.2 | 0.00 | 0.28 | 0.03 | 68 | 1013.3 |
| 20260507060449 | 6 | 316 | 3.2 | 8.0 | 0.00 | 0.28 | 0.03 | 68 | 1013.5 |
| 20260507055948 | 6 | 292 | 3.2 | 9.7 | 0.00 | 0.28 | 0.03 | 68 | 1013.5 |
| 20260507055445 | 6 | 330 | 3.2 | 4.8 | 0.00 | 0.28 | 0.03 | 68 | 1013.6 |
| 20260507054946 | 6 | 286 | 1.6 | 8.0 | 0.00 | 0.28 | 0.03 | 69 | 1013.7 |
| 20260507054446 | 6 | 275 | 4.8 | 6.4 | 0.00 | 0.28 | 0.03 | 68 | 1013.7 |
| 20260507053945 | 6 | 281 | 1.6 | 8.0 | 0.00 | 0.28 | 0.03 | 68 | 1013.7 |
| 20260507053445 | 6 | 312 | 6.4 | 8.0 | 0.03 | 0.28 | 0.03 | 68 | 1013.7 |
| 20260507052945 | 6 | 343 | 1.6 | 4.8 | 0.03 | 0.28 | 0.03 | 69 | 1013.7 |
| 20260507052445 | 7 | 305 | 3.2 | 4.8 | 0.03 | 0.28 | 0.03 | 69 | 1013.7 |
| 20260507051945 | 7 | 341 | 0.0 | 4.8 | 0.03 | 0.36 | 0.03 | 68 | 1013.8 |
| 20260507051446 | 7 | 296 | 0.0 | 3.2 | 0.03 | 0.36 | 0.03 | 68 | 1013.8 |
| 20260507050945 | 7 | 281 | 4.8 | 4.8 | 0.03 | 0.36 | 0.03 | 68 | 1013.7 |
| 20260507050445 | 7 | 347 | 4.8 | 6.4 | 0.03 | 0.36 | 0.03 | 67 | 1013.7 |
| 20260507045945 | 7 | 330 | 0.0 | 0.0 | 0.03 | 0.36 | 0.03 | 67 | 1013.7 |
| 20260507045445 | 7 | 307 | 0.0 | 4.8 | 0.03 | 0.36 | 0.03 | 67 | 1013.8 |
| 20260507044946 | 7 | 277 | 1.6 | 3.2 | 0.03 | 0.36 | 0.03 | 67 | 1013.8 |
| 20260507044445 | 7 | 347 | 1.6 | 6.4 | 0.03 | 0.36 | 0.03 | 68 | 1013.8 |
| 20260507043945 | 7 | 323 | 1.6 | 11.3 | 0.03 | 0.36 | 0.03 | 67 | 1013.8 |
| 20260507043445 | 7 | 329 | 8.0 | 8.0 | 0.00 | 0.33 | 0.00 | 66 | 1013.7 |
| 20260507042946 | 7 | 267 | 0.0 | 4.8 | 0.00 | 0.33 | 0.00 | 67 | 1013.8 |
| 20260507042446 | 7 | 323 | 4.8 | 6.4 | 0.00 | 0.33 | 0.00 | 67 | 1013.7 |
| 20260507041946 | 7 | 282 | 6.4 | 6.4 | 0.00 | 0.33 | 0.00 | 68 | 1013.7 |
| 20260507041445 | 7 | 271 | 3.2 | 4.8 | 0.00 | 0.33 | 0.00 | 68 | 1013.7 |
| 20260507040945 | 7 | 306 | 3.2 | 8.0 | 0.00 | 0.33 | 0.00 | 69 | 1013.7 |
| 20260507040446 | 7 | 291 | 8.0 | 8.0 | 0.00 | 0.33 | 0.00 | 69 | 1013.8 |
| 20260507035945 | 7 | 292 | 3.2 | 9.7 | 0.00 | 0.33 | 0.00 | 68 | 1013.7 |
| 20260507035447 | 7 | 324 | 4.8 | 6.4 | 0.00 | 0.33 | 0.33 | 67 | 1013.5 |
| 20260507034946 | 7 | 289 | 1.6 | 6.4 | 0.00 | 0.33 | 0.33 | 67 | 1013.5 |
| 20260507034446 | 7 | 222 | 0.0 | 6.4 | 0.00 | 0.33 | 0.33 | 66 | 1013.5 |
| 20260507033946 | 7 | 295 | 4.8 | 8.0 | 0.00 | 0.33 | 0.33 | 67 | 1013.4 |
| 20260507033445 | 7 | 324 | 0.0 | 3.2 | 0.00 | 0.33 | 0.33 | 67 | 1013.4 |
| 20260507032945 | 7 | 341 | 0.0 | 4.8 | 0.00 | 0.33 | 0.33 | 67 | 1013.4 |
| 20260507032446 | 7 | 343 | 4.8 | 4.8 | 0.00 | 0.33 | 0.33 | 67 | 1013.4 |
| 20260507031945 | 7 | 29 | 4.8 | 4.8 | 0.00 | 0.33 | 0.33 | 67 | 1013.4 |
| 20260507031446 | 7 | 340 | 3.2 | 8.0 | 0.00 | 0.33 | 0.33 | 67 | 1013.4 |
| 20260507030945 | 7 | 358 | 0.0 | 6.4 | 0.00 | 0.33 | 0.33 | 67 | 1013.5 |
| 20260507030446 | 7 | 14 | 4.8 | 8.0 | 0.00 | 0.33 | 0.33 | 66 | 1013.3 |
| 20260507025947 | 7 | 355 | 3.2 | 8.0 | 0.00 | 0.33 | 0.33 | 65 | 1013.3 |
| 20260507025446 | 8 | 336 | 3.2 | 6.4 | 0.00 | 0.33 | 0.33 | 66 | 1013.4 |
| 20260507024946 | 8 | 338 | 4.8 | 6.4 | 0.00 | 0.33 | 0.33 | 65 | 1013.4 |
| 20260507024446 | 8 | 345 | 3.2 | 12.9 | 0.00 | 0.33 | 0.33 | 64 | 1013.0 |
| 20260507023945 | 8 | 336 | 12.9 | 12.9 | 0.00 | 0.33 | 0.33 | 64 | 1013.1 |
| 20260507023446 | 8 | 14 | 1.6 | 9.7 | 0.00 | 0.33 | 0.33 | 64 | 1013.1 |
| 20260507022946 | 8 | 338 | 9.7 | 14.5 | 0.00 | 0.33 | 0.33 | 65 | 1013.1 |
| 20260507022446 | 8 | 2 | 8.0 | 16.1 | 0.00 | 0.33 | 0.33 | 65 | 1012.9 |
| 20260507021946 | 8 | 343 | 11.3 | 16.1 | 0.00 | 0.33 | 0.33 | 66 | 1012.9 |
| 20260507021446 | 8 | 337 | 12.9 | 17.7 | 0.00 | 0.33 | 0.33 | 68 | 1012.9 |
| 20260507020946 | 8 | 8 | 9.7 | 14.5 | 0.00 | 0.33 | 0.33 | 67 | 1012.7 |
| 20260507020446 | 8 | 354 | 14.5 | 17.7 | 0.00 | 0.33 | 0.33 | 67 | 1012.8 |
| 20260507015946 | 8 | 347 | 6.4 | 12.9 | 0.00 | 0.33 | 0.33 | 68 | 1012.9 |
| 20260507015446 | 8 | 340 | 9.7 | 12.9 | 0.00 | 0.33 | 0.33 | 68 | 1013.0 |
| 20260507014946 | 8 | 15 | 6.4 | 14.5 | 0.00 | 0.33 | 0.33 | 68 | 1012.8 |
| 20260507014446 | 8 | 2 | 9.7 | 17.7 | 0.00 | 0.33 | 0.33 | 67 | 1012.8 |
| 20260507013946 | 8 | 12 | 6.4 | 16.1 | 0.00 | 0.33 | 0.33 | 68 | 1012.7 |
| 20260507013446 | 8 | 8 | 4.8 | 11.3 | 0.00 | 0.33 | 0.33 | 71 | 1012.8 |
| 20260507012946 | 8 | 11 | 8.0 | 9.7 | 0.00 | 0.33 | 0.33 | 72 | 1012.9 |
| 20260507012446 | 8 | 347 | 3.2 | 8.0 | 0.00 | 0.33 | 0.33 | 71 | 1013.0 |
| 20260507011946 | 8 | 354 | 6.4 | 6.4 | 0.00 | 0.33 | 0.33 | 71 | 1013.3 |
| 20260507011447 | 9 | 313 | 4.8 | 9.7 | 0.00 | 0.33 | 0.33 | 70 | 1013.4 |
| 20260507010946 | 9 | 340 | 6.4 | 9.7 | 0.00 | 0.33 | 0.33 | 69 | 1013.4 |
| 20260507010446 | 9 | 295 | 3.2 | 14.5 | 0.00 | 0.33 | 0.33 | 68 | 1013.3 |
| 20260507005948 | 9 | 341 | 6.4 | 16.1 | 0.00 | 0.33 | 0.33 | 68 | 1013.3 |
| 20260507005446 | 9 | 322 | 4.8 | 12.9 | 0.00 | 0.33 | 0.33 | 69 | 1013.4 |
| 20260507004946 | 9 | 315 | 8.0 | 11.3 | 0.00 | 0.33 | 0.33 | 70 | 1013.1 |
| 20260507004446 | 9 | 306 | 9.7 | 16.1 | 0.00 | 0.33 | 0.33 | 70 | 1013.3 |
| 20260507003946 | 9 | 288 | 4.8 | 14.5 | 0.00 | 0.33 | 0.33 | 70 | 1013.0 |
| 20260507003449 | 9 | 310 | 14.5 | 14.5 | 0.00 | 0.33 | 0.33 | 72 | 1013.0 |
| 20260507002946 | 9 | 307 | 6.4 | 17.7 | 0.00 | 0.33 | 0.33 | 73 | 1013.0 |
| 20260507002446 | 9 | 315 | 12.9 | 14.5 | 0.00 | 0.33 | 0.33 | 73 | 1013.1 |
| 20260507001946 | 10 | 319 | 8.0 | 14.5 | 0.00 | 0.33 | 0.33 | 73 | 1012.9 |
| 20260507001446 | 10 | 312 | 9.7 | 12.9 | 0.00 | 0.33 | 0.33 | 74 | 1012.9 |
| 20260507000946 | 10 | 316 | 11.3 | 11.3 | 0.00 | 0.33 | 0.33 | 74 | 1012.7 |
| 20260507000446 | 10 | 315 | 8.0 | 20.9 | 0.00 | 0.33 | 0.33 | 74 | 1012.6 |
| 20260506235946 | 10 | 284 | 6.4 | 16.1 | 0.00 | 0.33 | 0.33 | 76 | 1012.6 |
| 20260506235446 | 10 | 296 | 8.0 | 16.1 | 0.00 | 0.33 | 0.33 | 76 | 1012.6 |
| 20260506234946 | 10 | 322 | 3.2 | 9.7 | 0.00 | 0.33 | 0.33 | 77 | 1012.4 |
| 20260506234446 | 10 | 326 | 9.7 | 11.3 | 0.00 | 0.33 | 0.33 | 78 | 1012.3 |
| 20260506233946 | 10 | 274 | 8.0 | 12.9 | 0.00 | 0.33 | 0.33 | 78 | 1012.2 |
| 20260506233446 | 10 | 347 | 9.7 | 11.3 | 0.00 | 0.33 | 0.33 | 79 | 1012.3 |
| 20260506232946 | 10 | 341 | 8.0 | 12.9 | 0.00 | 0.33 | 0.33 | 78 | 1012.3 |
| 20260506232446 | 10 | 293 | 6.4 | 12.9 | 0.00 | 0.33 | 0.33 | 78 | 1012.2 |
| 20260506231947 | 10 | 322 | 9.7 | 14.5 | 0.00 | 0.33 | 0.33 | 78 | 1012.1 |
| 20260506231448 | 10 | 305 | 4.8 | 11.3 | 0.00 | 0.33 | 0.33 | 78 | 1011.9 |
| 20260506230946 | 10 | 313 | 9.7 | 16.1 | 0.00 | 0.33 | 0.33 | 78 | 1011.9 |
| 20260506230446 | 10 | 282 | 8.0 | 12.9 | 0.00 | 0.33 | 0.33 | 78 | 1011.9 |
| 20260506225946 | 10 | 291 | 12.9 | 14.5 | 0.00 | 0.33 | 0.33 | 77 | 1011.9 |
| 20260506225446 | 10 | 286 | 9.7 | 14.5 | 0.00 | 0.33 | 0.33 | 78 | 1011.9 |
| 20260506224946 | 10 | 299 | 6.4 | 16.1 | 0.00 | 0.33 | 0.33 | 78 | 1011.8 |
| 20260506224446 | 10 | 288 | 12.9 | 14.5 | 0.00 | 0.33 | 0.33 | 80 | 1011.8 |
| 20260506223946 | 10 | 298 | 9.7 | 14.5 | 0.00 | 0.33 | 0.33 | 80 | 1011.8 |
| 20260506223446 | 10 | 282 | 4.8 | 11.3 | 0.00 | 0.33 | 0.33 | 81 | 1011.7 |
| 20260506222946 | 10 | 281 | 8.0 | 11.3 | 0.00 | 0.33 | 0.33 | 81 | 1011.8 |
| 20260506222446 | 10 | 281 | 6.4 | 6.4 | 0.00 | 0.33 | 0.33 | 81 | 1011.7 |
| 20260506221946 | 10 | 312 | 4.8 | 11.3 | 0.00 | 0.33 | 0.33 | 81 | 1011.6 |
| 20260506221447 | 10 | 286 | 1.6 | 9.7 | 0.00 | 0.33 | 0.33 | 82 | 1011.4 |
| 20260506220946 | 10 | 271 | 4.8 | 11.3 | 0.00 | 0.33 | 0.33 | 82 | 1011.6 |
| 20260506220446 | 10 | 310 | 1.6 | 11.3 | 0.00 | 0.33 | 0.33 | 82 | 1011.7 |
| 20260506215946 | 10 | 313 | 11.3 | 14.5 | 0.00 | 0.33 | 0.33 | 83 | 1011.8 |
| 20260506215447 | 10 | 285 | 8.0 | 9.7 | 0.00 | 0.33 | 0.33 | 83 | 1011.7 |
| 20260506214946 | 10 | 261 | 4.8 | 12.9 | 0.03 | 0.33 | 0.33 | 83 | 1011.4 |
| 20260506214446 | 10 | 309 | 9.7 | 9.7 | 0.03 | 0.33 | 0.33 | 83 | 1011.2 |
| 20260506213946 | 10 | 319 | 4.8 | 8.0 | 0.03 | 0.33 | 0.33 | 83 | 1011.0 |
| 20260506212946 | 10 | 352 | 6.4 | 12.9 | 0.03 | 0.33 | 0.33 | 82 | 1011.0 |
| 20260506212446 | 10 | 291 | 8.0 | 12.9 | 0.03 | 0.33 | 0.33 | 82 | 1010.9 |
| 20260506211946 | 10 | 331 | 9.7 | 19.3 | 0.03 | 0.33 | 0.33 | 83 | 1010.9 |
| 20260506211447 | 10 | 307 | 9.7 | 20.9 | 0.03 | 0.33 | 0.33 | 83 | 1011.0 |
| 20260506210946 | 10 | 15 | 6.4 | 16.1 | 0.03 | 0.33 | 0.33 | 83 | 1010.9 |
| 20260506210446 | 10 | 324 | 8.0 | 14.5 | 0.03 | 0.33 | 0.33 | 83 | 1010.9 |
| 20260506205946 | 10 | 313 | 12.9 | 14.5 | 0.03 | 0.33 | 0.33 | 82 | 1010.8 |
| 20260506205446 | 10 | 284 | 8.0 | 16.1 | 0.03 | 0.33 | 0.33 | 83 | 1010.6 |
| 20260506204946 | 10 | 28 | 9.7 | 20.9 | 0.00 | 0.30 | 0.30 | 82 | 1010.5 |
| 20260506204446 | 10 | 329 | 8.0 | 19.3 | 0.00 | 0.30 | 0.30 | 83 | 1010.4 |
| 20260506203946 | 10 | 298 | 16.1 | 17.7 | 0.00 | 0.30 | 0.30 | 83 | 1010.4 |
| 20260506203447 | 10 | 341 | 14.5 | 19.3 | 0.00 | 0.30 | 0.30 | 82 | 1010.4 |
| 20260506202946 | 10 | 312 | 4.8 | 19.3 | 0.00 | 0.30 | 0.30 | 84 | 1010.5 |
| 20260506202446 | 10 | 293 | 9.7 | 16.1 | 0.00 | 0.30 | 0.30 | 83 | 1010.3 |
| 20260506201947 | 10 | 11 | 8.0 | 20.9 | 0.00 | 0.30 | 0.30 | 83 | 1010.4 |
| 20260506201446 | 10 | 309 | 11.3 | 17.7 | 0.00 | 0.30 | 0.30 | 84 | 1010.4 |
| 20260506200948 | 10 | 316 | 3.2 | 17.7 | 0.00 | 0.30 | 0.30 | 85 | 1010.5 |
| 20260506200448 | 11 | 333 | 9.7 | 16.1 | 0.00 | 0.30 | 0.30 | 86 | 1010.3 |
| 20260506195946 | 11 | 333 | 3.2 | 8.0 | 0.00 | 0.30 | 0.30 | 87 | 1010.4 |
| 20260506195447 | 11 | 312 | 4.8 | 12.9 | 0.00 | 0.30 | 0.30 | 87 | 1010.4 |
| 20260506194946 | 11 | 291 | 12.9 | 14.5 | 0.00 | 0.30 | 0.30 | 86 | 1010.4 |
| 20260506194446 | 10 | 282 | 8.0 | 19.3 | 0.00 | 0.30 | 0.30 | 86 | 1010.4 |
| 20260506193946 | 10 | 278 | 12.9 | 14.5 | 0.00 | 0.30 | 0.30 | 86 | 1010.3 |
| 20260506193446 | 11 | 277 | 9.7 | 19.3 | 0.00 | 0.30 | 0.30 | 87 | 1010.2 |
| 20260506192948 | 11 | 295 | 6.4 | 12.9 | 0.00 | 0.30 | 0.30 | 88 | 1010.2 |
| 20260506192446 | 11 | 315 | 3.2 | 16.1 | 0.00 | 0.30 | 0.30 | 88 | 1010.1 |
| 20260506191947 | 11 | 305 | 9.7 | 12.9 | 0.00 | 0.30 | 0.30 | 89 | 1010.1 |
| 20260506191447 | 11 | 296 | 8.0 | 11.3 | 0.00 | 0.30 | 0.30 | 88 | 1010.0 |
| 20260506190946 | 11 | 288 | 8.0 | 14.5 | 0.00 | 0.30 | 0.30 | 88 | 1010.0 |
| 20260506190446 | 11 | 289 | 11.3 | 14.5 | 0.00 | 0.30 | 0.30 | 89 | 1010.0 |
| 20260506185947 | 10 | 299 | 6.4 | 12.9 | 0.00 | 0.30 | 0.30 | 89 | 1010.0 |